Weather History for Corpus Christi, TX

Change the Weather History Date:

Sunday, November 25, 2012

  Actual Average Record
Temperature  
Mean Temperature 63 °F 63 °F  
Max Temperature 76 °F 73 °F 91 °F (1915)
Min Temperature 50 °F 53 °F 36 °F (1993)
Degree Days  
Heating Degree Days 2 5  
Month to date heating degree days 23 65  
Since 1 July heating degree days 32 75  
Cooling Degree Days 0 3  
Month to date cooling degree days 148 111  
Year to date cooling degree days 4351 3462  
Growing Degree Days 12 (Base 50)    
Moisture  
Dew Point 55 °F    
Average Humidity 70    
Maximum Humidity 87    
Minimum Humidity 53    
Precipitation  
Precipitation 0.00 in 0.05 in 1.91 in (1980)
Month to date precipitation 0.54 1.73  
Year to date precipitation 18.74 29.69  
Snow  
Snow 0.00 in - - ()
Month to date snowfall 0.0  
Since 1 July snowfall 0.0  
Since 1 September snowfall 0.0  
Snow Depth 0.00 in    
Sea Level Pressure  
Sea Level Pressure 30.03 in    
Wind  
Wind Speed 6 mph (East)    
Max Wind Speed 14 mph    
Max Gust Speed 17 mph    
Visibility 10 miles    
Events      
T = Trace of Precipitation, MM = Missing Value Source: NWS Daily Summary

Daily Weather History Graph

Daily Weather History Graph

Search for Another Location

Airport:

Trip Planner

Search our weather history database for the weather conditions in past years. The results will help you decide how hot, cold, wet, or windy it might be!

Date:

Astronomy

Nov. 25, 2012 Rise Set
Actual Time 6:59 AM CST 5:34 PM CST
Civil Twilight 6:34 AM CST 6:00 PM CST
Nautical Twilight 6:05 AM CST 6:28 PM CST
Astronomical Twilight 5:37 AM CST 6:56 PM CST
Moon 3:44 PM CST (11/25) 4:24 AM CST (11/25)
Length of Visible Light 11h 25m
Length of Day
10h 35m
Waxing Gibbous, 93% of the Moon is Illuminated
Nov 25
Waxing Gibbous
Nov 28
Full
Dec 6
Last Quarter
Dec 13
New
Dec 19
First Quarter

Hourly Weather History & Observations

Time (CST) Temp. Dew Point Humidity Pressure Visibility Wind Dir Wind Speed Gust Speed Precip Events Conditions
12:51 AM 51.1 °F 39.0 °F 63% 30.16 in 10.0 mi WSW 4.6 mph - N/A   Clear
1:51 AM 50.0 °F 39.0 °F 66% 30.14 in 10.0 mi West 3.5 mph - N/A   Clear
2:51 AM 51.1 °F 39.9 °F 66% 30.12 in 10.0 mi WNW 4.6 mph - N/A   Clear
3:51 AM 50.0 °F 39.0 °F 66% 30.11 in 10.0 mi NW 4.6 mph - N/A   Clear
4:51 AM 51.1 °F 43.0 °F 74% 30.09 in 10.0 mi North 5.8 mph - N/A   Clear
5:51 AM 52.0 °F 44.1 °F 74% 30.09 in 10.0 mi North 3.5 mph - N/A   Clear
6:51 AM 52.0 °F 43.0 °F 71% 30.10 in 10.0 mi Calm Calm - N/A   Mostly Cloudy
7:51 AM 57.0 °F 46.0 °F 67% 30.11 in 10.0 mi NW 3.5 mph - N/A   Mostly Cloudy
8:51 AM 61.0 °F 46.9 °F 60% 30.11 in 10.0 mi Calm Calm - N/A   Overcast
9:51 AM 66.9 °F 50.0 °F 54% 30.12 in 10.0 mi NNE 3.5 mph - N/A   Overcast
10:22 AM 69.8 °F 51.8 °F 53% 30.11 in 10.0 mi NE 5.8 mph - N/A   Scattered Clouds
10:51 AM 73.0 °F 55.0 °F 53% 30.10 in 10.0 mi ENE 4.6 mph - N/A   Scattered Clouds
11:51 AM 75.9 °F 59.0 °F 56% 30.07 in 10.0 mi ESE 9.2 mph - N/A   Mostly Cloudy
12:51 PM 75.0 °F 59.0 °F 57% 30.03 in 10.0 mi ESE 8.1 mph - N/A   Overcast
1:12 PM 75.2 °F 60.8 °F 61% 30.02 in 10.0 mi ESE 9.2 mph - N/A   Overcast
1:51 PM 73.9 °F 60.1 °F 62% 29.99 in 10.0 mi East 9.2 mph - N/A   Mostly Cloudy
2:51 PM 75.9 °F 62.1 °F 62% 29.98 in 10.0 mi East 9.2 mph - N/A   Mostly Cloudy
3:51 PM 75.0 °F 63.0 °F 66% 29.96 in 10.0 mi East 9.2 mph - N/A   Mostly Cloudy
4:32 PM 75.2 °F 62.6 °F 65% 29.95 in 10.0 mi East 9.2 mph - N/A   Mostly Cloudy
4:44 PM 73.4 °F 62.6 °F 69% 29.95 in 10.0 mi East 11.5 mph - N/A   Scattered Clouds
4:51 PM 75.0 °F 63.0 °F 66% 29.95 in 10.0 mi East 10.4 mph - N/A   Scattered Clouds
5:51 PM 72.0 °F 63.0 °F 73% 29.95 in 10.0 mi East 8.1 mph - N/A   Partly Cloudy
6:51 PM 69.1 °F 63.0 °F 81% 29.96 in 10.0 mi East 5.8 mph - N/A   Partly Cloudy
7:51 PM 66.9 °F 63.0 °F 87% 29.96 in 10.0 mi ESE 6.9 mph - N/A   Clear
8:51 PM 69.1 °F 63.0 °F 81% 29.98 in 10.0 mi SSE 6.9 mph - N/A   Mostly Cloudy
9:51 PM 70.0 °F 64.9 °F 84% 29.97 in 10.0 mi South 11.5 mph - N/A   Partly Cloudy
10:51 PM 69.1 °F 64.0 °F 84% 29.96 in 10.0 mi South 9.2 mph - N/A   Clear
11:51 PM 66.9 °F 62.1 °F 84% 29.96 in 10.0 mi South 6.9 mph - N/A   Clear